Location: Dompnac
(44.5644°N, 4.1026°E)
Time: 05:18:40
(UTC+00:00)

NOSS 2-2 (E) - Pass Details

Date: 25 January 2021
Orbit: 462 x 1744 km, 63.3° (Epoch: 05 March)

Event Time Altitude Azimuth Distance (km) Brightness Sun altitude
Rises 20:02:13 0° 323° (NW) 3,190 7.8 -35.3°
Reaches altitude 10° 20:04:17 10° 324° (NW) 2,409 7.0 -35.7°
Enters shadow 20:06:46 30° 328° (NNW) 1,562 5.8 -36.1°
